Temur Kvaratskhelia

Chief Scout - Shukura
22 Oct 2028
Sunday
Process

Personality

Adaptability (14) Ambition (10) Controversy (7) Loyalty (19) Pressure (14) Professionalism (13) Sportsmanship (19) Temperament (11)

Profile

Coaching Style Democratic
License Continental Pro
Determination 7
Man Management 6
Motivating 7
Discipline 8
Job Satisfaction
100%
Fatigue
0%
Role Chief Scout
Wage 29.9K p/w
Contract 14.03.2030

Performance

Behaviour Good
Training Effectiveness
26%
Player Development
35%
Injury Prevention
15%
Tactical Implementation
15%

Recent Events

Assessed a player now
Attended a recruitment meeting now
Attended a recruitment meeting now
Assessed a player 7d ago
Attended a recruitment meeting 7d ago
Attended a recruitment meeting 7d ago
Assessed a player 7d ago
Assessed a player 7d ago

Currently Monitoring

276
Player Club Status Ability Confidence Watched Last Observed Latest Vote
Davit Gotsiridze Kolkheti Active 90 / 97 40% 5 19.10.2028 -
Chimobi Igwilo Rangers International Active 90 / 101 40% 2 19.10.2028 -
Mauro Valiente Estudiantes Active 124 / 114 40% 6 19.10.2028 -
Jerónimo Porto Lapegüe San Telmo Active 114 / 96 40% 4 18.10.2028 -
Nicolás Medina Atlanta Active 108 / 123 40% 2 18.10.2028 -
Sebastián de Marco Fenix Active 95 / 90 40% 1 18.10.2028 -
Sagir Arce Saburtalo Active 109 / 100 40% 9 16.10.2028 -
Joseph Arumala Ikorodu City Active 101 / 87 40% 4 16.10.2028 -
Tiago Taobas Central Norte Active 105 / 95 40% 2 16.10.2028 -
Facundo Krüger Temperley Active 107 / 130 40% 5 15.10.2028 -
Alao Dabani Nasarawa United Active 101 / 96 40% 2 15.10.2028 -
Mauro Molina Estudiantes Active 105 / 106 40% 3 10.10.2028 -
Joaquín Zappacosta Morón Active 91 / 75 40% 1 10.10.2028 -
Axel Pedrozo Almagro Active 88 / 96 40% 1 10.10.2028 -
Genaro Rossi San Martín SJ Active 108 / 107 40% 2 09.10.2028 -
Augusto Berrondo Tristán Suárez Active 116 / 98 40% 2 09.10.2028 -
Santino Coppola Kolkheti Active 75 / 84 40% 1 09.10.2028 -
Bruno Miño Almirante Brown Negotiating 96 / 123 40% 4 07.10.2028 -
Juan David Rueda Alianza Petrolera Active 122 / 103 40% 6 04.10.2028 -
Davit Kvaratskhelia Zugdidi Active 85 / 85 40% 4 04.10.2028 -
Franco Ayunta Temperley Active 120 / 126 40% 1 04.10.2028 -
Marco Miori Alvarado Active 103 / 125 40% 2 03.10.2028 -
Santiago Sala Güemes Active 117 / 119 40% 3 03.10.2028 -
Juan Peinipil Madryn Active 112 / 124 40% 2 02.10.2028 -
Agustín Gallo Tristán Suárez Active 100 / 95 40% 2 02.10.2028 -
Lisandro Cabrera Maipú Active 107 / 96 40% 5 01.10.2028 -
Lorenzo Barrera Agropecuario Argentino Active 104 / 81 40% 1 01.10.2028 -
Camilo Machado Madryn Active 111 / 94 40% 8 28.09.2028 -
Dylan Cabral Arsenal Active 95 / 110 40% 3 28.09.2028 -
Juan Mendoza Güemes Active 95 / 97 40% 1 28.09.2028 -
Daniel Barrea Godoy Cruz Active 125 / 138 40% 5 27.09.2028 -
Renzo Reynaga Patronato Active 118 / 130 40% 1 26.09.2028 -
Enzo González Defensores Active 117 / 88 40% 3 24.09.2028 -
Tomás Jerez San Miguel Active 110 / 95 40% 2 23.09.2028 -
Tomás Blanco Estudiantes Active 111 / 120 40% 3 18.09.2028 -
Matías Sosa Arsenal Active 116 / 127 40% 1 18.09.2028 -
Luca Franco Arsenal Active 110 / 105 40% 7 17.09.2028 -
Sebastián Cocimano Nueva Chicago Active 110 / 124 40% 3 17.09.2028 -
Tornike Mikautadze Tskhinvali Active 100 / 83 40% 8 14.09.2028 -
Ganiyu Wasiu Shooting Stars Active 73 / 102 40% 1 14.09.2028 -
Sebastián Marfort Racing Active 106 / 107 40% 1 13.09.2028 -
Abubakar Bonni Enyimba Active 89 / 81 40% 9 11.09.2028 -
Gianluca Pugliese Güemes Active 104 / 123 40% 3 10.09.2028 -
Bashar Musa US Forces Armees Active 100 / 92 40% 3 09.09.2028 -
Adama Traoré Gazelle Garoua Active 114 / 118 40% 3 28.08.2028 -
Álex Perdomo Defensor Sporting Active 111 / 103 40% 1 28.08.2028 -
Miloš Bočić Altamura Active 109 / 119 40% 1 14.08.2028 -
Anas Alaoui Lecco Active 110 / 100 40% 1 14.08.2028 -
Emanuele Scipioni Monopoli Active 103 / 93 40% 2 17.07.2028 -
John Kelly Fleetwood Town Active 105 / 81 40% 3 17.07.2028 -
Emanuele Pecorino Catanzaro Active 109 / 111 40% 1 17.07.2028 -
Aleksandre Mchedlidze Chikhura Negotiating 62 / 53 65% 1 26.06.2028 -
Danny Butterworth Accrington Stanley Active 103 / 93 40% 3 21.06.2028 -
Gianluca D'Auria Potenza Active 98 / 103 40% 3 21.06.2028 -
Mirian Zoidze Dinamo Batumi Report Ready 74 / 55 65% 1 07.06.2028 -
Nika Dumbadze Dinamo Batumi Negotiating 80 / 66 65% 1 01.06.2028 -
Emanuele Schimmenti Potenza Active 119 / 101 40% 7 31.05.2028 -
Anthony Scully Shrewsbury Town Active 112 / 120 40% 5 31.05.2028 -
Luca Hoole Shrewsbury Town Active 98 / 123 40% 1 31.05.2028 -
Pol Valentín Cambridge United Active 117 / 124 40% 1 31.05.2028 -
Job Ochieng Real Sociedad Active 121 / 126 40% 3 29.05.2028 -
Layton Stewart Barnet Active 112 / 117 40% 8 29.05.2028 -
Luca Mazzeo Picerno Active 110 / 88 40% 1 29.05.2028 -
Joshua Ajala Walsall Active 114 / 88 40% 3 28.05.2028 -
Marco Tumminello Benevento Active 108 / 98 40% 6 28.05.2028 -
Aaron Collins Milton Keynes Dons Active 125 / 129 40% 4 27.05.2028 -
Jack Vale Sorrento Active 104 / 94 40% 8 27.05.2028 -
Nicola Rauti Vicenza Active 120 / 117 40% 2 27.05.2028 -
Will Davies Fleetwood Town Active 106 / 101 40% 3 26.05.2028 -
Ryan Graydon Salford City Active 117 / 102 40% 4 26.05.2028 -
Gennaro Tutino Sampdoria Active 125 / 125 40% 2 25.05.2028 -
Ichem Ferrah Livorno Active 122 / 126 40% 3 25.05.2028 -
Tyrese Shade Burton Albion Active 97 / 114 40% 2 22.05.2028 -
Giacomo Zecca Torres Active 101 / 89 40% 2 21.05.2028 -
Mattia Tordini Crotone Active 90 / 118 40% 3 21.05.2028 -
Calum Kavanagh Oldham Athletic Active 109 / 115 40% 7 19.05.2028 -
Marcus Browne AFC Wimbledon Active 114 / 116 40% 5 19.05.2028 -
Paolo Yrizar Chernomorets Active 93 / 92 40% 7 18.05.2028 -
Mason Bennett Harrogate Town Active 79 / 90 40% 1 17.05.2028 -
Kylian Kouassi Colchester United Active 98 / 102 40% 2 16.05.2028 -
Matty Stevens AFC Wimbledon Active 108 / 123 40% 5 14.05.2028 -
Dani Ángel Sampdoria Active 89 / 124 40% 1 14.05.2028 -
Giuseppe Panico Foggia Active 131 / 101 40% 3 10.05.2028 -
Louis Appéré Cambridge United Active 107 / 123 40% 7 09.05.2028 -
Aaron Drinan Swindon Town Active 117 / 115 40% 3 04.05.2028 -
Tyler Roberts Mansfield Town Active 109 / 92 40% 1 04.05.2028 -
Kimarni Smith Newport County Active 106 / 84 40% 4 03.05.2028 -
Ismail Achik Salernitana Active 113 / 120 40% 2 30.04.2028 -
Luca Vido Union Brescia Active 111 / 105 40% 1 28.04.2028 -
Igor Tyjon Barrow AFC Active 126 / 134 40% 4 27.04.2028 -
Michele Emmausso Cosenza Active 98 / 93 40% 2 27.04.2028 -
George Lloyd Shrewsbury Town Active 98 / 82 40% 1 26.04.2028 -
Rushian Hepburn-Murphy Milton Keynes Dons Active 96 / 83 40% 1 26.04.2028 -
Guillaume Furrer Lecco Active 113 / 122 40% 1 24.04.2028 -
Nicolò Bruschi Ternana Active 109 / 98 40% 1 24.04.2028 -
Marcelo Orellana Vis Pesaro Active 109 / 103 40% 1 21.04.2028 -
Lamin Sillah Exeter City Active 98 / 98 40% 2 18.04.2028 -
Alessandro Seghetti Campobasso Active 125 / 116 40% 1 18.04.2028 -
Marcus Dinanga Bromley Active 83 / 79 40% 1 15.04.2028 -
Gabriele Gori Ascoli Active 115 / 132 40% 1 11.04.2028 -
Miguel Falé Pacos de Ferreira Active 122 / 97 40% 2 09.04.2028 -
Matija Popović Fakel Active 117 / 114 40% 2 30.03.2028 -
Louis Flower Crawley Town Active 89 / 81 40% 2 29.03.2028 -
Admir Bristrić Cambridge United Active 101 / 116 40% 1 28.03.2028 -
Said Aliev Rotor Active 89 / 106 40% 2 24.03.2028 -
Facundo Lescano Salernitana Active 113 / 108 40% 1 23.03.2028 -
Kamran Aliev SKA Khabarovsk Active 101 / 118 40% 11 22.03.2028 -
Francesco Petito Dolomiti Bellunesi Active 97 / 109 40% 2 22.03.2028 -
Axel Gnapi Dable Fakel Active 97 / 103 40% 1 21.03.2028 -
Alexandr Saplinov Volga Active 111 / 102 40% 4 14.03.2028 -
Surkhaikhan Abdullaev KAMAZ Active 92 / 99 40% 1 13.03.2028 -
Youssef Dalouzi Renaissance Active 99 / 85 40% 4 10.03.2028 -
Alan Cisnero Exeter City Active 97 / 104 40% 2 10.03.2028 -
Aleksej Golijanin Sokol Active 97 / 94 40% 5 05.03.2028 -
Javohir Esonqulov Merani Active 99 / 109 40% 2 27.02.2028 -
Danil Karpov KAMAZ Active 105 / 99 40% 1 24.02.2028 -
Sergio Riffo Kolkheti Active 88 / 75 40% 10 22.02.2028 -
Julen Cordero Samtredia Active 90 / 96 40% 4 19.02.2028 -
Kirill Tsepenkov Dnepr Mogilev Active 92 / 99 40% 2 14.02.2028 -
Gustavo Viera Cerro Largo Active 101 / 89 40% 2 09.02.2028 -
Vladislav Sarveli Nizhniy Novgorod Active 101 / 113 40% 1 09.02.2028 -
Wilman Moreira Irkutsk Active 84 / 88 40% 1 09.02.2028 -
Bayéré Junior Loué Javor-Matis Active 106 / 94 40% 1 08.02.2028 -
Zurab Museliani Dila Active 100 / 86 40% 5 17.01.2028 -
Vyacheslav Grulev Nizhniy Novgorod Active 105 / 101 40% 1 17.01.2028 -
Favio Cabral Mitre Active 126 / 121 40% 1 30.12.2027 -
Luciano Riveros San Martín SJ Active 119 / 108 40% 1 29.12.2027 -
Augustine Nwaorisa Enyimba Active 104 / 99 40% 8 28.12.2027 -
Lucas Pedraza Defensores Unidos Active 103 / 115 40% 1 28.12.2027 -
Otar Parulava Dila Active 109 / 103 40% 1 25.12.2027 -
Antonio Napolitano Agropecuario Argentino Active 116 / 134 40% 1 25.12.2027 -
Lautaro Gordillo Colegiales Active 127 / 121 40% 1 25.12.2027 -
Alan Bonansea Colón Active 124 / 127 40% 1 24.12.2027 -
Carlos Ramírez Zulia Active 105 / 113 40% 2 21.12.2027 -
Tosin Olawale El-Kanemi Warriors Active 86 / 87 40% 4 11.12.2027 -
Owen Falconis Cerrito Active 107 / 111 40% 2 09.12.2027 -
Matías Samaniego Talleres Active 99 / 88 40% 1 06.12.2027 -
Leonel Pollacchi San Telmo Active 125 / 128 40% 2 28.11.2027 -
Beka Dartsmelia Saburtalo Active 100 / 99 40% 2 28.11.2027 -
Giorgi Kveladze Samtredia Active 89 / 93 40% 1 27.11.2027 -
Joel Ezra Enyimba Active 88 / 80 40% 1 25.11.2027 -
Elías Peralta Lokomotivi Active 89 / 111 40% 4 22.11.2027 -
Idris Ajiya Nasarawa United Active 100 / 89 40% 4 20.11.2027 -
Paulo Vitor Dinamo Batumi Active 107 / 107 40% 1 19.11.2027 -
Dato Mchedlidze Tskhinvali Active 108 / 116 52% 4 / 1m 14.11.2027 -
Lautaro Núñez Alvarado Active 89 / 85 40% 2 14.11.2027 -
Johan Campaña Patriotas Active 105 / 107 40% 1 14.11.2027 -
Agustín Dávila Cerro Largo Active 100 / 87 40% 1 09.11.2027 -
Joël Kabongo Lokomotivi Active 106 / 90 40% 2 08.11.2027 -
Franco Bustamante Almagro Active 100 / 111 40% 1 07.11.2027 -
Benedek Simon Sioni Active 86 / 85 40% 1 28.10.2027 -
Mateo Stamatov Torpedo Kutaisi Active 103 / 114 40% 1 24.10.2027 -
Olawale Emmanuel Niger Tornadoes Active 93 / 100 40% 1 17.10.2027 -
Alexey Antilevskiy Slavia Mozyr Active 102 / 91 40% 1 10.10.2027 -
Sandro Altunashvili Dinamo Batumi Active 105 / 100 40% 1 09.10.2027 -
Yeferson Rodallega Envigado Active 116 / 113 40% 1 07.10.2027 -
Matej Šimić Torpedo Kutaisi Active 94 / 87 40% 1 05.10.2027 -
Artem Mylchenko Dinamo Batumi Active 113 / 99 40% 1 03.10.2027 -
Tornike Arveladze Dinamo Batumi Active 92 / 99 40% 3 02.10.2027 -
Santiago Guzmán Wanderers Active 109 / 95 40% 1 28.09.2027 -
Tamaz Makatsaria Samtredia Active 91 / 97 40% 1 17.09.2027 -
Tobías Cervera Gimnasia y Esgrima Active 109 / 142 40% 1 03.08.2027 -
Bashiru Usman Niger Tornadoes Active 76 / 58 40% 1 26.07.2027 -
Magomed Nasibov Pobeda Active 79 / 71 40% 7 30.05.2027 -
Lorenzo Maasland Casarano Active 85 / 113 40% 1 29.05.2027 -
Kirill Danilin Ural Active 109 / 118 40% 2 28.05.2027 -
Ruslan Apekov Torpedo Moscow Active 106 / 92 40% 4 26.05.2027 -
André Miranda Porto Active 107 / 86 40% 1 25.05.2027 -
Daniil Penchikov Arsenal Tula Active 100 / 80 40% 1 22.05.2027 -
Artem Stepanovich Sevastopol Active 82 / 72 40% 2 17.05.2027 -
Danil Akhatov Ufa Active 79 / 105 40% 5 11.05.2027 -
Thom van Bergen Groningen Active 118 / 131 40% 2 11.05.2027 -
Ítalo Ural Active 114 / 107 40% 1 10.05.2027 -
Daniil Agureev Amkar Active 88 / 97 40% 5 08.05.2027 -
Stanislav Biblyk Chaika Active 93 / 106 40% 5 08.05.2027 -
Sergey Gaiduk Salyut Active 66 / 102 40% 1 06.05.2027 -
Víctor Guzmán Sporting CP Active 84 / 88 40% 2 01.05.2027 -
Gevork Sarkisyan Saturn Active 79 / 74 40% 1 01.05.2027 -
Martin Sekulić Ural Active 112 / 91 67% 8 30.04.2027 Monitor
Rüstəm Əhmədzadə Sumgayit Active 104 / 123 40% 1 29.04.2027 -
Igor Shkolik SKA Khabarovsk Active 97 / 107 40% 1 29.04.2027 -
Darío Ramírez Real Sociedad Active 79 / 98 40% 2 28.04.2027 -
Gabriel Monjes Hamrun Spartans Active 101 / 98 40% 2 26.04.2027 -
Anton Betyuzhnov Dinamo Vologda Active 93 / 77 40% 3 24.04.2027 -
Ilja Safronov Rotor Active 91 / 80 40% 5 23.04.2027 -
Giuseppe D'Agostino Giugliano Active 84 / 99 40% 1 14.04.2027 -
Daniil Kondrakov KDV Tomsk Active 107 / 98 40% 1 14.04.2027 -
Romelu Meunier KV Oostende Active 88 / 76 40% 1 12.04.2027 -
Đorđe Pantelić Spartak Kostroma Active 92 / 116 40% 2 09.04.2027 -
Nuri Abdokov Fakel Active 89 / 113 40% 1 07.04.2027 -
Pablo García Gijón Active 106 / 117 40% 1 06.04.2027 -
Dmitry Kuptsov Spartak Tambov Active 70 / 74 40% 2 03.04.2027 -
Nikita Pogrebnev Ryazan Active 87 / 83 40% 1 03.04.2027 -
Ekain Orobengoa Real Sociedad Active 107 / 97 40% 5 31.03.2027 -
Darko Todorović Fakel Active 100 / 113 40% 1 31.03.2027 -
Evgeny Voronin Volga Active 97 / 107 40% 1 30.03.2027 -
Vasily Cherov Ufa Active 91 / 92 40% 1 30.03.2027 -
Iker Pozo Rodina Active 124 / 99 40% 2 27.03.2027 -
Mikhail Gainov Dinamo Stavropol Active 73 / 88 40% 1 15.03.2027 -
Sergey Gribov Dinamo Bryansk Active 88 / 107 40% 1 11.03.2027 -
Leo Goglichidze Rodina Active 115 / 97 40% 1 10.03.2027 -
Garrik Levin Chelyabinsk Active 98 / 102 40% 1 05.03.2027 -
Mevran Ablak Angusht Active 64 / 72 40% 2 01.03.2027 -
Rashid Magomedov Neftekhimik Active 79 / 107 40% 2 28.02.2027 -
Kirill Cheburakov Rostov Active 67 / 58 40% 1 21.02.2027 -
Yeangel Montero Naxxar Lions Active 98 / 114 40% 2 12.02.2027 -
Miloš Jovičić Zabbar St. Patrick Active 94 / 116 40% 3 10.02.2027 -
Patrick Schmidt Tarxien Rainbows Active 93 / 112 40% 2 10.02.2027 -
Shaft Brewer Valletta Active 79 / 108 40% 1 06.02.2027 -
Timofey Shipunov Ufa Active 93 / 100 40% 1 05.02.2027 -
Franklin Sasere Birkirkara Active 102 / 102 40% 1 03.02.2027 -
Nikolay Boyarkin Salyut Active 87 / 72 40% 1 03.02.2027 -
Ramazan Gadjimuradov Chelyabinsk Active 106 / 113 40% 1 02.02.2027 -
Nikita Kireev Dinamo Vologda Active 72 / 102 40% 1 02.02.2027 -
Robert Murić Floriana Active 107 / 118 40% 3 25.01.2027 -
Zurab Gigashvili Samtredia Active 63 / 60 58% 1 18.01.2027 -
Renat Garayev AZAL Active 107 / 111 40% 2 28.12.2026 -
Alexandr Yushin Torpedo Moscow Active 91 / 105 40% 1 27.12.2026 -
Davit Volkovi Zira Active 125 / 113 40% 2 24.12.2026 -
Jacobo Alcalde SKA Khabarovsk Active 88 / 103 40% 1 20.12.2026 -
Diamanka Senghor Mosta Active 82 / 84 40% 1 19.12.2026 -
Maxim Kutovoy Salyut Active 91 / 66 40% 1 17.12.2026 -
Damir Céter Hamrun Spartans Active 93 / 85 40% 3 15.12.2026 -
Shota Shekiladze Dila Active 112 / 110 40% 3 13.12.2026 -
Ilja Gruznov Khimik Active 91 / 87 40% 1 13.12.2026 -
Kirill Burykin Amkar Active 75 / 82 40% 1 08.12.2026 -
Migran Ageyan Ufa Active 86 / 78 40% 1 07.12.2026 -
Israel Emmanuel Hamrun Spartans Active 70 / 66 40% 2 25.11.2026 -
Denis Rubanov Dinamo Stavropol Active 98 / 67 40% 1 25.11.2026 -
Dmitry Lesnikov Volgar Active 97 / 93 40% 1 23.11.2026 -
Daniel Udoh Salford City Active 110 / 99 40% 1 23.11.2026 -
David Karaev KAMAZ Active 92 / 88 40% 2 22.11.2026 -
Imran Oulad Omar Dinamo Batumi Active 110 / 133 40% 3 18.11.2026 -
Denzel Jubitana Neftchi Active 120 / 102 40% 2 18.11.2026 -
Alan Tsaraev Arsenal Tula Active 93 / 115 40% 1 17.11.2026 -
Elliot Bonds Fleetwood Town Active 98 / 118 40% 1 17.11.2026 -
Paul Mbong Floriana Active 108 / 116 40% 1 15.11.2026 -
Alexandr Lomovitskiy Torpedo-BelAZ Active 99 / 115 40% 1 03.11.2026 -
Hakeeb Adelakun Doncaster Rovers Active 94 / 85 40% 2 02.11.2026 -
Maximiliano Gómez Nacional Active 127 / 111 40% 1 02.11.2026 -
Alassana Jatta Notts County Active 94 / 97 40% 1 22.10.2026 -
Elliot Collier Saburtalo Active 108 / 87 40% 2 19.10.2026 -
Yegor Kortsov Dinamo Brest Active 106 / 90 40% 1 11.10.2026 -
Dmitri Mandrîcenco Dinamo Batumi Active 104 / 106 40% 1 11.10.2026 -
Sam Nombe Milton Keynes Dons Active 106 / 117 40% 1 08.10.2026 -
David Ozoh Derby County Active 117 / 128 40% 1 06.10.2026 -
Nikoloz Mali Dila Active 106 / 117 40% 1 05.10.2026 -
Tom Pearce Chesterfield Active 116 / 119 40% 1 05.10.2026 -
Johnly Yfeko Exeter City Active 90 / 106 40% 1 03.10.2026 -
Nika Kalandarishvili Dinamo Batumi Active 102 / 80 40% 1 02.10.2026 -
Vagner Gonçalves Nogueira Kolkheti Active 112 / 87 40% 1 01.10.2026 -
Alex Pattison Walsall Active 105 / 87 40% 1 29.09.2026 -
Manprit Sarkaria Austria Wien Active 112 / 92 40% 1 29.09.2026 -
Bence Gergényi Lokomotivi Active 110 / 89 40% 1 27.09.2026 -
Fede Varela Floriana Active 103 / 90 40% 1 26.09.2026 -
Felipe Pires Torpedo Kutaisi Active 97 / 115 40% 1 25.09.2026 -
Ibrahim Alhassan Saburtalo Active 106 / 93 40% 1 24.09.2026 -
Giorgi Kharaishvili Dinamo Tbilisi Active 106 / 107 40% 1 24.09.2026 -
Tedo Kikabidze Dila Active 100 / 96 40% 1 23.09.2026 -
Jaïro Riedewald Sheffield United Active 139 / 139 40% 1 22.09.2026 -
Jonathan Farías Torpedo Kutaisi Active 112 / 101 40% 1 22.09.2026 -
Lander Astiazarán Real Sociedad Active 112 / 118 40% 1 16.09.2026 -
Welton Júnior Dinamo Tbilisi Active 90 / 111 40% 1 14.09.2026 -
Franco Sivetti Gimnasia y Tiro Active 111 / 82 40% 1 14.09.2026 -
Francisco Perruzzi Aldosivi Active 116 / 118 40% 1 11.09.2026 -
Steven Alfred Torpedo-BelAZ Active 109 / 107 40% 1 10.09.2026 -
Alexis Dulón Huracán Active 95 / 75 40% 1 08.09.2026 -
Kekuta Manneh Samtredia Active 91 / 87 40% 1 07.09.2026 -
Tomás Galván River Plate Active 134 / 105 40% 1 07.09.2026 -
Mariano Bracamonte Deportivo Riestra Active 138 / 102 40% 1 07.09.2026 -
Algassime Bah Dinamo Tbilisi Active 101 / 90 40% 1 02.09.2026 -
Charles Vernam Grimsby Town Active 118 / 114 40% 2 31.08.2026 -
Agustín Obregón River Plate Active 104 / 142 40% 1 24.08.2026 -
Nazareno Roselli Defensa y Justicia Active 94 / 137 40% 1 18.08.2026 -
Giorgi Todua Lokomotivi Active 45 / 51 51% 1 10.08.2026 -
Tomás Fernández Aldosivi Active 112 / 132 40% 1 01.08.2026 -